#timestamp,LO_Frequency,Hit,StdDev 
1601877615.3,286046993.8,N
1601877635.1,286046995.2,N
1601877636.0,286046995.2,N
1601877655.8,286046993.9,N
1601877675.7,286046993.3,N
1601877695.5,286046993.4,N
1601877715.4,286046993.0,N
1601877735.2,286046991.5,N
1601877755.0,286046992.6,N
1601877755.9,286046992.6,N
1601877775.8,286046991.9,N
1601877795.6,286046990.1,N
1601877815.4,286046992.2,N
1601877835.3,286046994.0,N
1601877855.1,286046995.6,N
1601877875.9,286046997.6,N
1601877895.7,286046992.2,N
1601877915.5,286046990.4,N
1601877935.4,286046989.2,N
1601877955.2,286046989.2,N
1601877975.0,286046991.4,N
1601877975.9,286046991.4,N
1601877995.8,286046987.5,Y
1601878015.6,286046990.2,P
1601878035.5,286046988.9,P
1601878055.3,286046987.3,P
1601878075.1,286046991.1,Y
1601878095.9,286047005.1,P
1601878115.7,286047003.0,N
1601878135.6,286047003.8,N
1601878155.4,286047005.8,N
1601878175.2,286047003.8,N
1601878195.1,286047005.3,N
1601878196.0,286047005.3,N
1601878215.8,286047004.1,N
1601878235.6,286047005.5,N
1601878255.5,286047005.2,N
1601878275.3,286047003.9,N
1601878295.2,286046998.5,N
1601878315.9,286046999.9,N
1601878335.7,286047004.3,N
1601878355.6,286047004.2,N
1601878375.4,286047000.8,N
1601878395.3,286046999.4,N
1601878415.1,286047000.0,N
1601878416.0,286047000.0,N
1601878435.8,286046998.9,N
1601878455.7,286046997.9,N
1601878475.5,286046996.0,N
1601878495.3,286046997.1,N
1601878515.2,286047001.1,N
1601878535.0,286046998.9,N
1601878535.9,286046998.9,N
1601878555.8,286046997.7,N
1601878575.6,286046999.2,N
1601878595.4,286047002.8,N
1601878615.3,286047000.6,N
1601878635.1,286047001.8,N
1601878655.9,286047003.2,N
1601878675.7,286047004.6,N
1601878695.5,286047007.4,N
1601878715.4,286047007.3,N
1601878735.2,286047010.8,Y
1601878755.1,286047006.1,P
1601878756.0,286047006.1,N
1601878775.8,286047008.8,P
1601878795.6,286047010.0,Y
1601878815.5,286047005.3,P
1601878835.3,286047002.1,P
1601878855.1,286047000.7,N
1601878875.9,286046999.2,N
1601878895.7,286046994.0,N
1601878915.6,286046995.5,N
1601878935.4,286046990.5,N
1601878955.2,286046988.5,N
1601878975.1,286046988.7,N
1601878976.0,286046988.7,N
1601878995.8,286046991.1,N
1601879015.7,286046988.7,N
1601879035.5,286046989.8,N
1601879055.3,286046986.2,N
1601879075.2,286046988.0,N
1601879095.0,286046989.3,N
1601879095.9,286046989.3,N
1601879115.7,286046986.9,N
1601879135.6,286046989.0,N
1601879155.4,286046989.5,N
1601879175.3,286046989.1,N
1601879195.1,286046993.2,N
1601879196.0,286046993.2,N
1601879215.8,286046994.4,N
1601879235.7,286046990.5,N
1601879255.5,286046989.4,N
1601879275.3,286046990.5,N
1601879295.2,286046989.0,N
1601879315.0,286046988.3,N
1601879315.9,286046988.3,N
1601879335.8,286046984.2,Y
1601879355.6,286046990.5,P
1601879375.4,286046995.8,P
1601879395.3,286046995.2,N
1601879415.1,286046994.3,N
1601879435.9,286046991.8,Y
1601879455.7,286047002.8,P
1601879475.5,286046999.9,N
1601879495.4,286046999.4,N
1601879515.2,286046995.2,N
1601879535.1,286046996.4,N
1601879536.0,286046996.4,N
1601879555.8,286046994.1,N
1601879575.6,286046995.1,N
1601879595.5,286046996.4,N
1601879615.3,286046992.0,N
1601879635.1,286046990.0,Y
1601879655.9,286046995.9,P
1601879675.7,286046992.5,P
1601879695.6,286046994.3,P
1601879715.4,286046997.6,N
1601879735.2,286046997.3,N
1601879755.1,286046993.5,Y
1601879756.0,286046993.5,P
1601879775.8,286046997.5,N
1601879795.7,286046999.4,N
1601879815.5,286046997.7,N
1601879835.3,286046995.6,N
1601879855.2,286046997.0,N
1601879875.0,286046995.5,N
1601879875.9,286046995.5,N
1601879895.8,286046993.9,Y
1601879915.6,286046997.9,P
1601879935.4,286046997.5,P
1601879955.3,286046999.5,N
1601879975.1,286046999.2,N
1601879995.8,286046996.8,N
1601880015.7,286046999.5,N
1601880035.5,286046993.4,Y
1601880055.4,286046995.3,P
1601880075.2,286046999.1,N
1601880095.0,286046998.4,N
1601880095.9,286046998.4,N
1601880115.8,286046997.7,N
1601880135.6,286046992.0,Y
1601880155.5,286046994.6,P
1601880175.3,286046990.5,P
1601880195.1,286046992.6,N
1601880215.9,286046992.8,N
1601880235.7,286046994.2,N
1601880255.5,286046999.2,N
1601880275.4,286047002.1,N
1601880295.2,286047003.7,N
1601880315.1,286047000.0,N
1601880316.0,286047000.0,N
1601880335.8,286047004.3,N
1601880355.6,286047003.6,N
1601880375.5,286047000.4,N
1601880395.3,286046999.8,N
1601880415.1,286046999.9,N
1601880435.9,286046998.6,N
1601880455.7,286046997.0,N
1601880475.6,286046995.4,N
1601880495.4,286046998.0,N
1601880515.2,286046997.3,N
1601880535.1,286046994.1,N
1601880536.0,286046994.1,N
1601880555.8,286046990.5,N
1601880575.7,286046992.7,N
1601880595.5,286046989.2,N
1601880615.3,286046989.3,N
1601880635.2,286046988.7,N
1601880655.0,286046991.5,N
1601880655.9,286046991.5,N
1601880675.8,286046990.6,N
1601880695.6,286046990.8,N
1601880715.4,286046990.6,N
1601880735.3,286046992.2,N
1601880755.1,286046992.0,N
1601880775.8,286046994.3,N
1601880795.7,286046994.3,N
1601880815.5,286046990.4,N
1601880835.4,286046991.5,N
1601880855.2,286046991.6,N
1601880875.0,286046987.3,N
1601880875.9,286046987.3,N
1601880895.8,286046985.3,Y
1601880915.6,286046996.2,P
1601880935.5,286046999.0,N
1601880955.3,286046998.1,N
1601880975.1,286047000.9,N
1601880995.9,286046997.4,N
1601881015.7,286046999.6,N
1601881035.6,286047001.2,N
1601881055.4,286047004.5,N
1601881075.2,286047007.3,N
1601881095.1,286047006.9,N
1601881115.8,286047001.5,N
1601881135.7,286046999.8,N
1601881155.5,286047005.4,N
1601881175.4,286047003.3,N
1601881195.2,286047003.4,N
